SCP
-0 -0 -0 -0 -0 -0 -0 -0 -0 -0 0 -0 -0 -0 -0 -0 -0 -0 -0 -0 -0 0 0 0 -0 -0 -0 0 -0 -0 0 0 0 0 0 -0 -0 -0 -0 -0 -0 -0 -0
-0 -0 0 -0 0 -0 -0 -0 -0 -0 -0 -0 -0 -0 -0 -0 -0 -0 -0 0 -0 -0 0 -0 -0 -0 -0 -0 -0 0 0 0 0 0 0 0 -0 -0 -0 -0 -0 -0 -0
0 0 0 0 -0 0 0 0 0 0 -0 0 0 0 0 0 -0 -0 -0 -0 -0 -0 -0 -0 -0 0 -0 -0 -0 0 0 0 0 0 0 0 0 -0 -0 -0 -0 -0 -0
0 0 -0 -0 0 0 0 0 0 -0 0 0 0 0 0 0 0 0 0 -0 -0 -0 0 -0 -0 -0 -0 -0 -0 -0 -0 0 0 0 0 0 0 0 0 -0 -0 -0 -0
-0 -0 0 -0 0 0 0 0 0 0 0 0 0 0 0 0 0 0 0 0 0 0 0 0 -0 0 0 -0 -0 -0 -0 -0 -0 0 0 0 0 0 0 0 -0 -0 -0
-0 -0 0 0 0 0 0 0 0 0 0 0 0 0 0 0 0 0 0 0 0 -0 0 0 0 0 0 -0 -0 0 -0 -0 -0 0 0 -0 0 0 -0 -0 0 0 -0
0 0 0 0 0 -0 0 0 0 0 0 0 -0 0 0 0 0 -0 0 0 0 0 0 0 0 0 0 -0 -0 0 0 -0 -0 0 -0 0 0 0 0 -0 -0 -0 0
0 0 0 0 0 0 0 0 0 0 0 0 0 0 0 0 0 0 0 0 0 0 0 0 0 0 0 0 0 0 0 0 0 0 0 1 0 0 0 0 0 -0 -0
0 0 0 -0 0 0 0 0 0 0 0 0 0 0 0 0 0 0 0 0 0 0 0 0 0 0 0 0 0 0 0 0 0 0 0 0 0 0 1 0 0 0 0
-0 0 -0 0 0 -0 0 0 0 0 0 0 0 0 0 0 0 0 0 0 0 0 0 0 0 0 0 0 0 0 0 0 0 0 0 0 0 0 0 0 1 0 0
-0 -0 0 0 0 0 0 0 0 0 0 -0 0 0 0 0 0 0 0 0 0 0 0 0 0 0 0 0 0 0 0 0 0 0 0 0 0 0 0 0 0 0 1
0 0 0 0 0 0 0 0 0 0 0 0 0 0 0 0 0 0 0 0 0 0 0 0 0 0 0 0 0 0 0 0 0 0 0 0 0 0 0 0 0 0 0
0 0 0 0 0 0 0 0 0 0 0 0 0 0 0 0 0 0 0 0 0 0 0 0 0 0 0 0 0 0 0 0 0 0 0 0 0 0 0 0 0 0 0
0 1 0 0 0 0 0 0 0 0 0 0 0 0 0 0 0 0 0 0 0 0 0 0 0 0 0 0 0 0 0 0 0 0 0 0 0 0 0 0 0 0 0
0 0 0 0 0 0 0 0 0 0 0 0 0 0 0 0 0 0 0 0 0 0 0 0 0 0 0 0 0 0 0 0 0 0 0 0 0 0 0 0 0 0 0
0 1 0 0 0 0 0 0 0 0 0 0 0 0 0 0 0 0 0 0 0 0 0 0 0 0 0 0 0 0 0 0 0 0 0 0 0 0 0 0 0 0 0
1 1 1 1 1 1 0 0 0 0 0 0 0 0 0 0 0 0 0 0 0 0 0 0 0 0 1 0 0 0 0 0 0 0 0 0 0 0 0 0 0 0 0
1 1 2 1 1 1 0 0 0 0 0 0 0 0 0 0 1 0 0 0 0 0 0 0 0 0 0 0 0 1 0 0 0 0 0 0 0 0 0 0 0 0 0
2 1 2 2 2 1 1 1 1 1 0 0 0 0 0 0 0 0 0 0 0 0 0 0 0 0 0 0 0 0 1 0 0 0 0 0 0 0 0 0 0 0 0
4 3 4 3 2 1 1 1 1 0 0 0 0 0 0 0 1 1 0 1 0 0 0 0 0 0 0 0 0 0 0 0 0 0 0 0 0 0 0 0 0 0 0
5 5 6 5 3 2 1 0 1 1 1 1 0 1 1 1 0 0 0 1 1 0 0 0 0 0 0 0 0 0 0 0 0 0 0 0 0 0 0 0 0 0 0
6 6 6 5 3 1 0 0 1 1 1 1 1 1 1 1 1 0 0 0 0 0 0 0 0 0 0 0 0 0 0 0 0 0 0 0 0 0 0 0 0 0 0
6 4 4 3 2 0 0 0 0 0 1 1 1 1 1 0 0 0 0 0 0 0 0 0 0 0 0 0 1 1 0 0 0 0 0 0 0 0 0 0 0 0 -0
4 4 4 2 1 1 0 0 0 0 0 0 0 1 1 1 1 1 1 0 0 1 0 0 0 0 1 0 0 0 0 0 0 0 0 0 0 0 0 0 0 0 0
4 3 2 2 2 4 0 0 0 0 0 0 0 1 1 1 0 0 0 0 0 1 0 0 0 0 0 0 0 0 0 0 0 0 0 0 0 0 0 0 0 0 0
3 2 1 1 1 1 0 0 0 1 1 1 1 2 0 0 0 0 0 0 0 0 0 0 0 0 0 0 0 0 0 0 0 0 0 0 0 0 0 0 0 0 0
Wind_Speed_500mb
15 11 12 13 13 13 21 11 17 14 15 17 16 12 14 14 15 10 13 24 20 11 8 10 9 17 15 13 19 20 15 14 15 17 18 19 17 15 15 15 16 17 16
18 19 15 14 14 16 20 12 13 17 14 16 18 15 21 17 17 17 12 21 21 13 12 14 14 12 15 16 14 21 19 17 15 18 19 18 19 20 18 17 18 19 20
22 20 15 16 17 22 23 19 16 14 14 13 15 17 18 16 15 14 11 8 18 19 9 12 15 13 14 19 23 18 21 21 20 19 19 20 21 23 21 19 19 20 19
24 17 19 15 19 15 21 20 11 11 18 14 18 16 15 12 11 10 5 7 8 11 19 15 12 18 15 18 21 23 22 18 23 22 23 22 21 22 24 24 22 20 20
25 19 19 22 24 22 24 16 8 12 15 16 16 14 10 8 8 2 4 5 2 3 6 14 18 22 19 17 21 23 25 26 26 25 24 23 26 28 28 27 26 25 24
25 22 20 29 19 19 15 7 9 16 16 10 12 9 5 2 2 2 4 5 5 3 2 4 13 8 13 19 21 24 26 26 27 30 30 31 30 27 29 31 32 32 30
23 31 19 15 19 12 10 12 15 13 9 6 12 7 8 2 2 3 2 2 5 3 1 6 8 6 12 10 20 24 27 28 28 32 31 31 32 34 35 35 35 35 35
23 20 13 16 21 10 20 12 9 5 8 6 8 6 6 10 8 7 3 6 5 3 2 4 3 16 3 8 15 20 24 28 29 30 31 36 36 36 37 39 41 43 43
24 23 22 21 15 18 12 14 4 7 5 7 9 5 6 6 4 7 7 1 6 2 4 6 3 2 13 10 11 14 17 21 25 32 36 38 38 40 43 43 44 46 47
23 22 21 18 21 10 15 6 6 7 4 3 5 1 6 6 10 9 9 5 1 2 3 1 6 7 4 6 16 11 13 19 23 27 32 36 38 41 43 45 48 50 50
25 23 21 19 16 11 16 13 8 8 6 6 4 3 2 3 4 7 12 6 5 6 5 8 7 6 13 5 10 21 15 16 19 21 24 30 35 40 45 48 48 50 54
21 25 24 24 17 15 15 9 12 11 12 14 9 7 4 4 2 7 14 14 12 16 11 13 13 12 13 14 15 26 24 24 24 25 24 25 28 31 35 40 45 50 54
23 29 28 25 19 20 16 14 14 12 9 7 9 7 7 7 8 10 14 17 19 18 18 13 17 16 16 18 20 28 35 32 31 30 31 33 33 33 33 35 38 42 47
28 30 32 28 24 20 18 19 14 11 11 9 9 10 7 9 11 12 15 17 26 31 29 23 21 18 17 18 24 36 31 35 40 39 36 36 38 38 39 40 40 39 42
31 38 33 29 25 27 25 22 17 18 17 15 16 16 11 11 13 14 15 16 18 27 29 25 22 18 21 21 21 34 37 36 43 47 43 43 43 44 44 43 44 46 48
42 37 37 32 30 27 26 23 17 17 20 18 17 19 20 13 15 18 20 16 21 27 33 27 28 28 27 29 37 45 43 42 47 46 50 47 46 43 46 51 51 53 55
51 46 47 34 31 29 23 21 20 23 21 23 22 23 21 19 14 16 19 20 21 24 32 32 32 35 40 39 40 38 39 44 44 47 46 52 61 61 56 55 55 57 59
58 54 51 43 37 31 22 7 22 24 27 30 26 23 23 20 25 23 19 25 29 30 30 40 39 39 40 42 43 44 42 40 43 44 53 52 47 48 52 57 57 62 63
66 61 57 53 48 39 18 39 34 43 35 35 30 30 28 26 30 28 29 29 30 30 29 36 44 46 47 46 47 52 47 47 50 49 52 53 52 52 64 72 67 65 58
76 76 70 63 59 53 35 43 53 47 42 40 38 34 32 32 34 36 32 32 34 35 33 38 44 45 45 53 39 48 56 51 50 45 51 55 58 64 64 68 72 67 60
83 85 83 75 71 71 63 49 62 47 45 42 39 38 36 35 33 40 36 37 38 38 41 44 49 48 51 47 44 47 47 53 52 52 58 57 58 64 67 65 64 65 63
77 86 93 89 87 77 66 51 53 46 47 45 42 41 39 41 46 48 44 41 45 50 54 47 47 49 57 52 43 45 45 47 57 46 59 67 61 68 69 65 60 66 74
80 81 86 91 90 79 65 47 45 52 46 39 41 44 38 36 40 48 51 46 47 45 46 48 53 52 47 44 44 51 49 56 61 59 59 69 52 58 61 67 72 80 89
74 71 72 90 93 84 71 55 51 56 50 41 54 46 43 51 51 50 51 44 47 38 45 48 49 47 44 44 52 59 64 61 53 49 47 64 57 65 69 67 83 96 109
66 66 69 75 90 71 69 61 53 55 46 50 53 49 52 52 52 60 52 42 51 49 38 42 47 50 57 53 44 40 39 42 50 48 45 60 66 66 70 82 90 103 100
54 55 64 56 63 63 69 68 50 56 55 49 51 49 53 51 64 52 44 48 45 38 33 33 41 44 51 45 44 48 51 45 49 55 51 57 65 71 85 78 93 111 122
Wind_Direction_500mb
244 281 276 275 288 308 281 316 290 298 307 299 283 311 310 307 302 294 276 296 308 273 254 226 227 223 219 221 223 226 215 210 218 225 226 219 218 232 245 249 252 250 251
261 262 290 283 288 281 267 278 295 271 292 294 341 326 304 302 294 290 271 289 306 309 269 250 237 239 233 229 233 228 229 225 219 220 224 227 232 235 247 253 255 255 261
255 245 260 262 278 277 278 279 271 320 339 331 304 304 304 306 302 292 288 262 284 302 308 276 252 242 240 241 231 234 227 231 239 233 226 230 241 247 245 252 259 259 259
248 254 272 272 274 275 296 267 296 310 313 298 301 308 307 315 304 319 336 262 259 268 297 289 281 268 256 237 240 232 229 223 231 235 233 237 240 247 249 253 257 256 259
257 255 261 264 261 261 262 291 289 305 303 303 300 301 308 316 330 34 12 39 5 357 255 248 295 287 260 249 235 239 238 236 235 238 236 239 243 246 250 254 259 260 260
242 246 256 252 262 276 283 262 290 292 299 305 300 273 286 308 354 31 46 48 19 46 330 311 298 281 282 265 244 236 237 237 238 242 241 243 244 249 253 256 258 259 261
234 241 240 269 281 263 261 307 295 297 316 289 286 254 226 137 131 145 46 346 11 0 12 9 14 50 257 281 257 246 247 248 248 244 241 246 247 248 251 255 258 258 260
254 266 243 241 267 262 283 270 288 286 295 271 318 279 234 167 186 131 19 4 16 19 16 6 341 199 274 282 282 256 256 257 260 261 259 254 255 256 255 255 256 259 261
232 237 229 208 233 246 272 293 291 280 291 304 313 323 280 84 138 174 140 310 27 16 42 30 118 357 184 256 284 268 270 267 266 267 269 269 266 262 260 262 260 259 259
215 227 221 230 233 213 226 268 275 193 262 286 322 73 292 345 323 151 204 215 221 357 323 98 332 327 65 286 272 279 280 279 276 271 270 272 272 271 268 264 263 263 261
201 209 212 215 232 205 227 202 231 219 226 229 243 258 282 272 337 328 308 137 307 234 294 325 278 269 309 240 277 301 309 293 284 280 273 270 269 268 269 268 265 264 264
209 204 204 214 216 198 215 227 232 226 202 207 197 222 237 275 287 303 294 296 303 287 266 287 287 282 276 277 277 272 293 292 288 286 289 286 282 277 273 270 268 264 262
213 227 202 218 216 203 205 224 241 208 240 213 208 219 232 248 276 280 289 293 294 293 273 250 266 256 273 276 277 283 295 302 292 284 284 286 286 286 285 282 277 272 266
214 224 233 213 203 217 206 222 222 209 245 252 241 249 240 254 269 277 283 294 304 306 314 268 259 248 268 267 261 283 300 300 291 288 280 281 281 281 282 281 281 281 278
213 212 212 206 211 205 211 221 197 240 216 244 246 255 252 261 272 275 281 288 283 304 302 305 296 278 285 275 263 280 291 288 286 287 293 284 279 278 280 280 279 279 278
210 224 216 213 206 205 212 217 216 227 236 235 248 252 254 261 274 280 288 280 280 286 287 297 292 292 291 281 282 285 290 287 293 301 297 296 288 278 273 277 277 277 277
225 207 231 210 209 197 205 229 212 215 244 247 239 246 251 263 277 276 282 282 284 291 294 294 297 296 289 291 291 285 285 287 286 289 293 289 287 289 284 278 276 274 273
222 228 225 216 212 208 197 196 271 252 248 241 240 241 246 254 269 281 284 280 276 284 287 293 297 300 298 301 295 296 288 288 286 286 281 288 298 298 296 292 287 283 275
229 232 225 220 216 199 219 258 287 262 238 239 241 236 241 247 255 261 260 271 275 282 288 291 296 294 289 297 289 298 292 289 283 287 292 297 297 295 293 292 295 295 287
233 229 231 226 216 212 229 254 309 248 237 237 235 234 238 244 256 267 270 271 276 277 283 289 288 291 292 299 282 293 291 295 293 289 286 285 285 287 288 290 289 287 285
236 235 232 231 221 227 237 259 289 238 239 239 228 235 243 250 253 254 258 267 265 275 280 286 289 290 290 295 297 291 289 289 285 289 289 286 286 283 279 279 284 286 285
236 235 235 232 228 227 234 260 271 233 242 235 234 233 238 243 256 264 268 268 277 275 279 279 282 284 283 290 291 292 289 290 290 287 286 288 287 286 287 286 283 280 278
235 240 235 233 229 231 234 261 262 233 238 234 244 244 246 256 262 267 275 280 282 280 278 279 281 286 284 285 281 287 289 283 286 289 285 289 292 289 290 289 286 283 279
240 237 233 232 227 226 236 254 259 231 238 247 243 248 256 253 269 281 282 281 280 276 279 279 282 283 287 283 278 287 292 295 296 294 290 288 295 291 298 287 283 284 288
235 236 238 239 229 230 243 250 243 228 233 249 258 256 258 273 280 289 282 288 272 276 274 282 281 275 280 290 296 295 290 293 293 294 294 291 294 296 295 290 294 308 300
236 237 239 246 239 236 244 248 240 227 230 243 244 256 268 276 291 286 279 269 272 275 281 278 281 284 294 294 301 293 289 285 293 295 298 299 298 297 300 297 303 317 315
Wind_Speed_850mb
15 11 12 13 13 13 21 11 17 14 15 17 16 12 14 14 15 10 13 24 20 11 8 10 9 17 15 13 19 20 15 14 15 17 18 19 17 15 15 15 16 17 16
18 19 15 14 14 16 20 12 13 17 14 16 18 15 21 17 17 17 12 21 21 13 12 14 14 12 15 16 14 21 19 17 15 18 19 18 19 20 18 17 18 19 20
22 20 15 16 17 22 23 19 16 14 14 13 15 17 18 16 15 14 11 8 18 19 9 12 15 13 14 19 23 18 21 21 20 19 19 20 21 23 21 19 19 20 19
24 17 19 15 19 15 21 20 11 11 18 14 18 16 15 12 11 10 5 7 8 11 19 15 12 18 15 18 21 23 22 18 23 22 23 22 21 22 24 24 22 20 20
25 19 19 22 24 22 24 16 8 12 15 16 16 14 10 8 8 2 4 5 2 3 6 14 18 22 19 17 21 23 25 26 26 25 24 23 26 28 28 27 26 25 24
25 22 20 29 19 19 15 7 9 16 16 10 12 9 5 2 2 2 4 5 5 3 2 4 13 8 13 19 21 24 26 26 27 30 30 31 30 27 29 31 32 32 30
23 31 19 15 19 12 10 12 15 13 9 6 12 7 8 2 2 3 2 2 5 3 1 6 8 6 12 10 20 24 27 28 28 32 31 31 32 34 35 35 35 35 35
23 20 13 16 21 10 20 12 9 5 8 6 8 6 6 10 8 7 3 6 5 3 2 4 3 16 3 8 15 20 24 28 29 30 31 36 36 36 37 39 41 43 43
24 23 22 21 15 18 12 14 4 7 5 7 9 5 6 6 4 7 7 1 6 2 4 6 3 2 13 10 11 14 17 21 25 32 36 38 38 40 43 43 44 46 47
23 22 21 18 21 10 15 6 6 7 4 3 5 1 6 6 10 9 9 5 1 2 3 1 6 7 4 6 16 11 13 19 23 27 32 36 38 41 43 45 48 50 50
25 23 21 19 16 11 16 13 8 8 6 6 4 3 2 3 4 7 12 6 5 6 5 8 7 6 13 5 10 21 15 16 19 21 24 30 35 40 45 48 48 50 54
21 25 24 24 17 15 15 9 12 11 12 14 9 7 4 4 2 7 14 14 12 16 11 13 13 12 13 14 15 26 24 24 24 25 24 25 28 31 35 40 45 50 54
23 29 28 25 19 20 16 14 14 12 9 7 9 7 7 7 8 10 14 17 19 18 18 13 17 16 16 18 20 28 35 32 31 30 31 33 33 33 33 35 38 42 47
28 30 32 28 24 20 18 19 14 11 11 9 9 10 7 9 11 12 15 17 26 31 29 23 21 18 17 18 24 36 31 35 40 39 36 36 38 38 39 40 40 39 42
31 38 33 29 25 27 25 22 17 18 17 15 16 16 11 11 13 14 15 16 18 27 29 25 22 18 21 21 21 34 37 36 43 47 43 43 43 44 44 43 44 46 48
42 37 37 32 30 27 26 23 17 17 20 18 17 19 20 13 15 18 20 16 21 27 33 27 28 28 27 29 37 45 43 42 47 46 50 47 46 43 46 51 51 53 55
51 46 47 34 31 29 23 21 20 23 21 23 22 23 21 19 14 16 19 20 21 24 32 32 32 35 40 39 40 38 39 44 44 47 46 52 61 61 56 55 55 57 59
58 54 51 43 37 31 22 7 22 24 27 30 26 23 23 20 25 23 19 25 29 30 30 40 39 39 40 42 43 44 42 40 43 44 53 52 47 48 52 57 57 62 63
66 61 57 53 48 39 18 39 34 43 35 35 30 30 28 26 30 28 29 29 30 30 29 36 44 46 47 46 47 52 47 47 50 49 52 53 52 52 64 72 67 65 58
76 76 70 63 59 53 35 43 53 47 42 40 38 34 32 32 34 36 32 32 34 35 33 38 44 45 45 53 39 48 56 51 50 45 51 55 58 64 64 68 72 67 60
83 85 83 75 71 71 63 49 62 47 45 42 39 38 36 35 33 40 36 37 38 38 41 44 49 48 51 47 44 47 47 53 52 52 58 57 58 64 67 65 64 65 63
77 86 93 89 87 77 66 51 53 46 47 45 42 41 39 41 46 48 44 41 45 50 54 47 47 49 57 52 43 45 45 47 57 46 59 67 61 68 69 65 60 66 74
80 81 86 91 90 79 65 47 45 52 46 39 41 44 38 36 40 48 51 46 47 45 46 48 53 52 47 44 44 51 49 56 61 59 59 69 52 58 61 67 72 80 89
74 71 72 90 93 84 71 55 51 56 50 41 54 46 43 51 51 50 51 44 47 38 45 48 49 47 44 44 52 59 64 61 53 49 47 64 57 65 69 67 83 96 109
66 66 69 75 90 71 69 61 53 55 46 50 53 49 52 52 52 60 52 42 51 49 38 42 47 50 57 53 44 40 39 42 50 48 45 60 66 66 70 82 90 103 100
54 55 64 56 63 63 69 68 50 56 55 49 51 49 53 51 64 52 44 48 45 38 33 33 41 44 51 45 44 48 51 45 49 55 51 57 65 71 85 78 93 111 122
Wind_Direction_850mb
244 281 276 275 288 308 281 316 290 298 307 299 283 311 310 307 302 294 276 296 308 273 254 226 227 223 219 221 223 226 215 210 218 225 226 219 218 232 245 249 252 250 251
261 262 290 283 288 281 267 278 295 271 292 294 341 326 304 302 294 290 271 289 306 309 269 250 237 239 233 229 233 228 229 225 219 220 224 227 232 235 247 253 255 255 261
255 245 260 262 278 277 278 279 271 320 339 331 304 304 304 306 302 292 288 262 284 302 308 276 252 242 240 241 231 234 227 231 239 233 226 230 241 247 245 252 259 259 259
248 254 272 272 274 275 296 267 296 310 313 298 301 308 307 315 304 319 336 262 259 268 297 289 281 268 256 237 240 232 229 223 231 235 233 237 240 247 249 253 257 256 259
257 255 261 264 261 261 262 291 289 305 303 303 300 301 308 316 330 34 12 39 5 357 255 248 295 287 260 249 235 239 238 236 235 238 236 239 243 246 250 254 259 260 260
242 246 256 252 262 276 283 262 290 292 299 305 300 273 286 308 354 31 46 48 19 46 330 311 298 281 282 265 244 236 237 237 238 242 241 243 244 249 253 256 258 259 261
234 241 240 269 281 263 261 307 295 297 316 289 286 254 226 137 131 145 46 346 11 0 12 9 14 50 257 281 257 246 247 248 248 244 241 246 247 248 251 255 258 258 260
254 266 243 241 267 262 283 270 288 286 295 271 318 279 234 167 186 131 19 4 16 19 16 6 341 199 274 282 282 256 256 257 260 261 259 254 255 256 255 255 256 259 261
232 237 229 208 233 246 272 293 291 280 291 304 313 323 280 84 138 174 140 310 27 16 42 30 118 357 184 256 284 268 270 267 266 267 269 269 266 262 260 262 260 259 259
215 227 221 230 233 213 226 268 275 193 262 286 322 73 292 345 323 151 204 215 221 357 323 98 332 327 65 286 272 279 280 279 276 271 270 272 272 271 268 264 263 263 261
201 209 212 215 232 205 227 202 231 219 226 229 243 258 282 272 337 328 308 137 307 234 294 325 278 269 309 240 277 301 309 293 284 280 273 270 269 268 269 268 265 264 264
209 204 204 214 216 198 215 227 232 226 202 207 197 222 237 275 287 303 294 296 303 287 266 287 287 282 276 277 277 272 293 292 288 286 289 286 282 277 273 270 268 264 262
213 227 202 218 216 203 205 224 241 208 240 213 208 219 232 248 276 280 289 293 294 293 273 250 266 256 273 276 277 283 295 302 292 284 284 286 286 286 285 282 277 272 266
214 224 233 213 203 217 206 222 222 209 245 252 241 249 240 254 269 277 283 294 304 306 314 268 259 248 268 267 261 283 300 300 291 288 280 281 281 281 282 281 281 281 278
213 212 212 206 211 205 211 221 197 240 216 244 246 255 252 261 272 275 281 288 283 304 302 305 296 278 285 275 263 280 291 288 286 287 293 284 279 278 280 280 279 279 278
210 224 216 213 206 205 212 217 216 227 236 235 248 252 254 261 274 280 288 280 280 286 287 297 292 292 291 281 282 285 290 287 293 301 297 296 288 278 273 277 277 277 277
225 207 231 210 209 197 205 229 212 215 244 247 239 246 251 263 277 276 282 282 284 291 294 294 297 296 289 291 291 285 285 287 286 289 293 289 287 289 284 278 276 274 273
222 228 225 216 212 208 197 196 271 252 248 241 240 241 246 254 269 281 284 280 276 284 287 293 297 300 298 301 295 296 288 288 286 286 281 288 298 298 296 292 287 283 275
229 232 225 220 216 199 219 258 287 262 238 239 241 236 241 247 255 261 260 271 275 282 288 291 296 294 289 297 289 298 292 289 283 287 292 297 297 295 293 292 295 295 287
233 229 231 226 216 212 229 254 309 248 237 237 235 234 238 244 256 267 270 271 276 277 283 289 288 291 292 299 282 293 291 295 293 289 286 285 285 287 288 290 289 287 285
236 235 232 231 221 227 237 259 289 238 239 239 228 235 243 250 253 254 258 267 265 275 280 286 289 290 290 295 297 291 289 289 285 289 289 286 286 283 279 279 284 286 285
236 235 235 232 228 227 234 260 271 233 242 235 234 233 238 243 256 264 268 268 277 275 279 279 282 284 283 290 291 292 289 290 290 287 286 288 287 286 287 286 283 280 278
235 240 235 233 229 231 234 261 262 233 238 234 244 244 246 256 262 267 275 280 282 280 278 279 281 286 284 285 281 287 289 283 286 289 285 289 292 289 290 289 286 283 279
240 237 233 232 227 226 236 254 259 231 238 247 243 248 256 253 269 281 282 281 280 276 279 279 282 283 287 283 278 287 292 295 296 294 290 288 295 291 298 287 283 284 288
235 236 238 239 229 230 243 250 243 228 233 249 258 256 258 273 280 289 282 288 272 276 274 282 281 275 280 290 296 295 290 293 293 294 294 291 294 296 295 290 294 308 300
236 237 239 246 239 236 244 248 240 227 230 243 244 256 268 276 291 286 279 269 272 275 281 278 281 284 294 294 301 293 289 285 293 295 298 299 298 297 300 297 303 317 315